Tracking 29892 objects as of 21-Nov-2024
HD Live streaming from Space Station
objects crossing your sky now

COSMOS 1328

Track COSMOS 1328 now!
10-day predictions
COSMOS 1328 is classified as:


NORAD ID: 12987
Int'l Code: 1981-117A
Perigee: 496.6 km
Apogee: 517.8 km
Inclination: 82.5 °
Period: 94.6 minutes
Semi major axis: 6878 km
RCS: 9.2433 m2 (large)
Launch date: December 3, 1981
Source: Commonwealth of Independent States (former USSR) (CIS)
Launch site: PLESETSK MISSILE AND SPACE COMPLEX (PKMTR)
Your satellite tracking list
Your tracking list is empty




NASA's NSSDC Master Catalog

Two Line Element Set (TLE):
1 12987U 81117A   24325.36855357  .00012399  00000-0  54102-3 0  9992
2 12987  82.4947 108.2717 0015403  54.1003 306.1660 15.21921269341621
Source of the keplerian elements: AFSPC